Main page
METAR-TAF:

METAR-TAF

Airports :

Lake City Gateway Airport

Lake City, Florida, United States

latitude: 30-10-55N, longitude: 082-34-37W, elevation: 200 ft

Current weather observation

The report was made 21 minutes ago, at 07:35 UTC
Wind 3 mph from the East
Temperature 63°F
Humidity 94%
Pressure 30.15 in. Hg
Visibility: 10 miles
Clear sky

METAR: KLCQ 180735Z AUTO 09003KT 10SM CLR 17/16 A3015 RMK AO2

Time: 03:56 (07:56 UTC)


TAF: missing

Weather observations and forecasts of more than 4000 airports (METAR and TAF reports).

The available stations are represented by yellow and red dots on the map.

Hover mouse over dot to see the name of the station.

Then click to see weather observations and forecasts.

To change the map : click on the green buttons with a black cross to zoom in, on the green button with a dash to zoom out, or on the green arrows for adjacent maps.


METAR-TAF: